Theta_e
311 311 310 310 310 311 311 312 312 312 312 312 311 311 310 309 310 311 313 315 317 317 316 316 317 316 317 318 319 318 310 311 313 315 317 316 315 316 316 316 316 317 318 317 317
310 310 310 310 311 311 311 312 312 312 313 313 312 312 312 312 311 312 312 313 316 317 316 316 317 317 316 318 319 316 308 310 311 314 315 316 315 316 315 315 314 316 317 317 317
310 310 311 311 311 311 311 311 312 312 312 312 312 312 312 312 312 313 316 313 314 316 316 315 318 318 317 317 318 315 313 312 316 318 317 316 314 316 314 311 315 317 317 317 317
312 312 312 312 312 312 312 312 312 312 312 312 312 312 312 311 310 316 315 314 315 315 315 315 317 317 315 315 318 316 316 315 316 318 317 314 316 313 315 316 317 317 316 317 317
312 312 312 312 312 312 312 312 312 312 312 312 313 313 312 310 312 314 313 313 313 315 316 315 315 317 315 314 316 315 315 318 318 317 317 317 314 313 315 317 317 317 316 316 316
309 309 309 309 309 310 310 311 312 312 313 313 313 313 313 309 313 313 313 314 314 315 316 314 315 316 316 315 314 315 314 315 315 316 316 315 315 314 316 316 316 316 316 316 315
313 313 313 313 313 313 312 310 309 309 310 312 313 314 313 314 315 315 314 314 314 314 314 314 314 315 314 313 315 315 312 310 310 313 312 314 312 310 316 315 316 317 317 317 317
314 314 314 314 314 314 314 314 314 312 310 307 307 311 311 315 315 315 315 313 313 313 313 313 313 314 314 313 312 312 311 311 310 310 312 313 311 312 316 316 316 318 318 318 317
312 311 311 312 313 313 314 314 314 314 314 310 306 307 310 313 314 314 313 313 313 312 312 312 313 313 313 309 309 308 309 309 309 310 311 310 312 311 315 316 315 316 317 317 317
316 315 313 311 311 312 312 313 314 313 312 309 307 309 308 311 313 314 314 313 313 312 311 311 312 308 307 307 310 309 308 308 309 311 310 310 310 310 315 312 313 315 315 315 316
320 319 318 317 317 316 313 313 312 312 312 312 311 308 311 312 312 314 313 313 312 311 308 310 308 309 310 309 310 308 307 308 308 309 311 310 311 311 312 312 312 312 312 313 314
321 320 321 320 322 320 321 315 312 309 309 312 313 311 310 313 314 314 313 312 311 309 308 309 308 309 309 308 308 309 310 310 310 310 307 308 309 309 308 310 312 313 312 312 313
325 323 321 321 322 321 321 321 316 308 308 310 311 309 311 310 312 313 312 311 310 308 308 310 310 309 308 308 310 308 309 310 310 309 307 307 310 309 307 309 311 312 312 312 313
324 324 324 323 324 322 322 321 313 308 306 306 308 308 308 309 310 310 311 311 309 309 308 308 309 309 308 308 309 311 308 309 309 309 311 309 312 309 309 309 307 310 312 313 315
322 325 324 324 324 324 323 322 310 312 325 312 309 309 310 308 307 307 309 310 308 308 308 307 309 309 309 310 308 310 309 308 308 307 308 310 308 311 309 309 308 308 311 315 316
320 321 323 323 324 322 323 321 313 313 322 312 308 308 309 309 307 307 308 308 307 307 306 307 307 307 308 307 306 308 310 308 305 306 310 310 310 312 308 309 309 309 314 315 316
320 321 321 322 322 322 323 317 322 324 315 314 309 308 307 308 308 306 306 307 307 308 306 306 306 306 308 309 308 309 308 309 309 309 312 307 308 313 311 308 308 310 312 313 313
314 316 317 318 320 321 322 319 321 319 317 314 310 308 310 307 309 306 305 305 305 305 304 307 313 306 306 308 307 307 308 310 308 314 315 306 309 315 308 308 309 309 311 312 313
309 310 313 315 318 320 318 321 319 320 318 319 319 318 312 310 310 308 306 306 306 304 309 307 310 306 305 306 307 306 308 309 310 303 308 311 310 311 308 307 308 308 311 312 311
306 307 308 310 317 318 316 320 319 318 317 319 322 319 320 311 317 309 310 308 307 304 306 310 311 310 306 306 306 307 307 309 307 311 311 310 311 312 311 311 309 306 307 312 312
300 306 307 310 313 314 315 315 316 317 317 318 319 320 320 320 319 319 319 315 308 310 305 307 311 314 310 307 310 306 307 307 307 310 314 315 314 313 312 308 307 305 307 310 312
303 308 307 313 313 313 315 313 314 314 315 316 316 317 318 318 318 317 319 317 314 312 312 309 312 315 314 307 305 307 308 308 311 312 310 312 314 313 313 309 304 308 311 312 312
305 307 309 314 313 313 312 312 313 313 313 314 315 314 315 315 316 315 316 315 315 313 314 313 314 316 316 311 309 312 313 312 311 311 311 312 312 311 311 311 311 310 310 311 311
300 301 307 308 309 311 311 312 312 312 313 313 314 313 313 314 313 314 313 311 310 310 310 312 315 316 317 316 312 312 311 311 313 314 314 313 312 311 311 311 311 312 311 309 305
297 299 302 306 306 307 309 308 309 309 311 312 312 313 313 313 312 313 309 306 307 307 307 309 312 312 311 310 310 311 311 312 313 314 313 313 315 313 312 311 307 303 302 299 299
296 297 298 297 299 302 304 307 307 307 308 309 309 309 309 310 310 306 301 303 303 304 302 303 305 305 306 305 305 307 307 309 311 309 309 307 307 301 297 294 293 297 294 294 294
293 294 295 296 296 297 300 302 302 299 303 301 299 300 302 301 297 296 296 296 298 298 299 300 302 300 302 300 299 299 300 302 305 306 305 306 299 295 294 293 292 293 292 293 294
Wind_Speed
7 7 7 8 8 8 8 9 9 9 9 9 10 10 10 10 11 13 16 12 7 10 7 6 6 7 7 4 4 3 3 3 5 5 4 2 3 4 6 8 9 10 19 13 10
8 8 8 9 9 9 9 9 10 10 10 10 11 12 13 15 16 20 15 12 12 9 8 7 8 8 4 4 5 4 3 8 6 4 4 3 5 12 5 8 10 18 23 24 23
10 10 10 10 11 12 12 12 12 12 12 12 12 13 14 15 19 5 5 8 14 11 9 8 8 8 4 5 7 6 6 5 9 14 9 5 6 11 5 8 21 22 27 26 28
13 13 14 14 14 14 14 14 14 14 14 13 13 14 15 13 6 2 5 9 7 15 13 12 10 6 5 5 9 3 14 13 8 10 7 5 8 6 15 37 33 28 24 25 27
16 15 16 16 17 17 17 17 17 17 16 15 15 15 16 9 17 20 18 14 12 16 19 17 16 9 5 5 4 5 5 16 26 22 22 20 22 12 25 46 39 33 32 32 31
16 15 16 16 17 17 18 19 20 20 19 17 16 16 17 10 14 12 11 12 13 15 19 21 9 14 6 6 6 3 9 15 14 18 16 7 19 3 37 35 32 24 24 28 34
16 16 16 17 17 17 18 19 20 20 21 21 19 18 21 29 21 22 22 19 17 17 18 19 20 7 2 4 5 7 8 9 8 11 9 13 12 11 43 33 30 31 30 29 30
15 16 16 17 17 19 19 19 21 20 20 19 20 19 18 23 24 24 23 24 18 17 17 18 14 12 9 7 4 4 1 5 1 7 3 12 13 19 25 23 29 29 29 29 31
12 13 14 15 17 19 18 19 20 20 19 18 16 14 12 19 21 23 23 22 17 18 15 11 8 7 7 3 4 3 5 8 12 15 5 8 10 12 8 13 23 27 33 39 44
9 10 11 12 14 17 17 17 17 17 15 11 13 6 18 15 13 13 16 18 14 10 8 9 8 2 3 4 8 8 6 6 7 6 4 6 15 12 35 13 27 37 44 50 52
10 10 10 11 12 14 14 11 6 5 6 10 7 9 9 17 16 12 12 15 11 8 6 6 4 10 21 17 5 4 7 8 9 8 3 9 15 17 26 29 27 35 44 50 53
12 12 11 12 12 11 13 6 8 8 12 18 27 30 29 15 7 14 14 12 9 7 8 2 10 19 4 4 8 9 15 17 17 18 5 17 23 17 12 20 39 39 38 43 48
16 15 12 12 12 9 11 12 13 11 5 13 22 18 28 21 15 11 16 9 5 7 10 14 7 14 8 7 7 10 8 18 17 6 6 10 19 14 12 25 37 46 42 43 48
20 18 15 13 11 7 10 14 14 11 3 7 4 3 5 6 4 12 20 8 3 10 6 9 8 11 6 7 14 19 13 14 11 3 8 3 18 6 8 15 10 30 39 41 45
15 16 16 13 12 14 11 11 9 6 7 3 3 1 5 5 5 0 14 7 5 5 5 9 5 4 7 15 9 11 3 6 2 3 5 3 4 1 5 7 14 14 30 34 34
19 17 16 15 13 15 12 9 4 2 9 4 3 2 4 1 1 2 2 4 2 3 5 10 2 6 9 6 9 2 3 2 3 3 8 11 9 8 5 8 5 7 25 31 28
16 16 16 16 15 16 11 7 3 7 3 3 2 3 3 4 2 3 4 3 5 1 5 1 5 3 6 4 1 4 4 4 4 1 11 6 6 18 13 8 8 13 25 29 34
16 16 16 19 18 15 12 0 6 5 5 3 1 2 4 7 3 3 2 3 5 1 2 3 14 8 5 9 8 7 10 6 7 10 18 8 11 18 9 10 11 9 13 22 27
21 21 21 18 16 17 8 6 8 5 5 4 5 4 5 3 4 4 7 6 8 13 8 4 14 0 6 4 9 4 6 7 5 1 2 13 18 17 6 7 2 6 13 25 21
23 23 29 21 14 18 6 18 8 10 2 2 6 5 4 5 4 5 5 2 5 10 4 3 12 6 2 2 4 7 1 2 1 4 10 8 15 16 17 17 10 6 7 16 16
18 7 12 9 20 13 10 8 15 23 20 7 8 11 12 6 8 4 4 3 3 4 7 1 3 12 1 7 12 1 4 5 1 5 16 18 12 27 20 8 9 7 12 13 21
5 3 6 19 10 6 13 9 10 21 13 9 7 14 17 16 17 13 11 9 11 7 6 7 6 9 20 3 4 1 5 7 10 12 12 16 18 22 29 13 9 23 33 39 44
4 6 7 25 7 12 7 7 18 19 17 5 10 9 16 20 14 14 12 9 4 5 4 4 4 4 3 6 1 6 13 18 16 13 19 19 17 14 20 29 31 24 25 26 29
2 3 6 17 20 8 12 17 15 13 14 15 9 12 13 14 12 9 12 5 9 6 14 7 8 14 16 15 21 18 10 12 19 15 22 21 25 21 25 29 32 41 23 25 23
4 4 3 3 9 15 14 13 17 15 9 8 4 12 17 9 11 9 4 6 2 5 4 2 8 7 13 13 13 17 20 20 24 25 21 22 22 18 26 23 20 32 30 28 29
3 3 4 8 14 6 6 17 22 23 16 21 18 14 6 7 6 2 4 1 3 2 3 1 8 13 20 22 16 19 20 27 19 15 15 21 29 18 25 30 33 22 28 29 31
6 11 5 7 2 1 5 9 3 7 2 3 5 4 7 2 2 7 11 15 14 11 7 6 6 5 19 21 17 15 19 21 20 23 23 21 7 12 17 19 25 19 27 29 27
Wind_Direction
311 315 319 324 328 328 328 331 334 336 337 337 336 334 331 320 301 282 271 264 252 231 236 221 208 205 206 210 202 176 60 251 250 182 246 222 225 238 251 245 228 224 241 252 260
297 302 307 308 308 310 312 314 315 317 319 321 321 320 322 321 312 297 285 253 235 226 228 225 209 197 199 205 197 160 149 228 218 222 233 267 232 262 256 247 241 248 251 255 261
293 295 295 297 299 300 301 301 302 303 304 308 310 313 314 318 317 313 10 238 232 227 225 217 211 206 225 214 206 189 213 221 256 243 272 261 258 252 224 265 244 245 271 261 253
287 290 292 292 292 291 292 292 292 292 294 297 298 303 305 307 296 313 305 301 248 227 222 215 210 194 207 211 223 224 246 242 265 271 276 255 276 249 227 261 276 278 278 262 255
284 286 287 287 288 288 288 286 284 284 286 288 290 294 300 282 264 285 286 279 258 233 226 219 214 205 194 212 228 228 251 256 264 269 273 279 265 261 267 279 281 276 270 262 258
283 285 286 286 287 286 284 282 282 281 280 280 283 287 288 255 271 278 278 268 249 239 230 222 222 230 271 230 197 292 276 276 279 265 257 239 277 261 276 286 284 277 274 267 262
284 284 285 287 287 287 287 285 283 279 275 273 272 273 271 264 274 276 272 268 254 245 238 238 234 229 248 291 277 291 316 311 221 256 229 215 292 224 269 276 278 281 283 279 274
284 285 287 288 290 290 290 288 284 283 279 275 266 263 257 273 267 261 258 254 247 241 239 241 239 247 261 280 330 342 333 322 307 139 230 164 257 267 271 264 270 277 283 284 286
297 294 293 292 291 291 294 291 291 287 280 272 262 240 262 258 254 256 246 244 243 239 234 240 220 222 250 101 7 299 240 224 305 205 152 187 245 265 278 249 270 276 283 283 284
311 317 319 308 305 304 308 302 295 287 276 261 234 223 242 243 246 246 238 229 221 212 204 190 183 179 53 114 233 227 225 249 242 288 168 229 249 275 284 275 266 277 283 284 281
314 319 327 327 328 328 330 330 308 285 253 222 228 223 266 238 246 246 228 205 179 171 171 185 137 206 223 207 225 188 219 236 253 254 244 245 254 261 268 279 267 266 270 273 277
304 310 319 322 331 336 347 14 350 305 299 266 257 250 250 259 250 218 206 179 177 195 127 112 214 220 222 167 212 240 260 265 270 264 229 267 266 267 254 253 262 267 265 268 275
296 298 304 313 324 322 344 349 338 326 268 278 251 253 247 248 235 225 204 200 167 172 201 216 223 222 201 223 245 231 227 255 261 303 239 283 274 243 250 251 254 265 262 268 273
287 287 292 300 309 311 329 334 335 337 324 272 251 237 224 179 223 210 189 199 210 221 212 244 235 214 183 204 212 266 225 257 264 347 273 8 299 197 242 250 238 250 267 269 277
295 294 286 293 285 305 309 321 326 354 298 236 194 190 170 184 128 37 195 191 206 201 157 250 182 176 206 230 162 246 218 230 184 217 327 212 270 177 137 250 255 262 259 268 274
279 284 283 285 279 307 288 282 298 54 248 298 147 103 111 350 2 109 179 197 146 216 217 251 299 178 218 220 182 106 79 76 62 121 269 201 208 323 163 217 269 269 277 279 278
270 264 263 271 275 293 281 255 201 217 1 249 209 164 171 191 247 193 145 200 200 257 259 266 214 228 180 251 100 133 81 309 313 71 245 147 202 257 288 234 222 267 283 300 304
279 273 267 265 269 267 261 116 266 194 229 318 126 88 212 163 230 116 51 264 241 132 317 279 293 185 171 188 193 192 166 180 215 268 280 124 256 277 227 265 271 320 332 340 334
283 281 270 261 259 247 202 211 216 213 204 264 314 233 215 239 209 160 194 228 223 183 204 216 270 37 209 172 155 177 189 227 262 178 272 270 274 285 239 264 31 351 357 348 353
281 275 269 264 242 226 213 241 240 210 224 238 236 193 192 187 197 191 188 199 248 196 220 257 275 215 199 180 243 182 102 68 329 223 244 250 270 261 278 279 270 267 317 338 16
268 269 267 229 220 197 226 239 249 246 262 257 265 258 262 248 212 223 191 257 228 259 200 126 85 266 196 213 236 153 241 214 190 212 257 261 251 269 273 255 236 272 278 301 300
182 243 229 203 192 208 234 222 227 260 259 255 258 251 255 264 268 266 244 238 255 218 222 233 218 249 255 253 191 158 241 241 238 251 242 257 254 270 278 271 247 271 288 294 300
225 249 216 203 230 228 244 245 242 251 244 235 244 237 250 260 268 246 256 279 266 209 233 161 226 260 262 292 281 209 237 233 244 268 259 262 261 266 285 290 283 281 287 290 293
235 283 211 231 238 256 250 252 257 243 250 239 251 269 269 266 264 267 275 308 352 349 333 286 249 257 263 271 288 275 252 255 239 251 258 254 268 260 275 282 293 297 321 353 21
200 249 263 244 242 248 249 265 269 269 236 235 236 244 263 255 269 266 298 341 298 351 5 11 270 281 307 314 310 303 299 298 284 272 258 267 277 287 270 296 344 357 15 23 14
226 241 278 291 293 287 246 246 257 268 269 268 266 279 283 267 254 166 10 113 284 356 44 194 281 293 277 283 280 281 281 268 267 274 278 279 286 9 17 13 2 19 16 10 358
236 256 290 261 281 275 254 262 289 350 1 22 50 337 276 297 348 299 280 262 257 268 261 255 260 271 273 281 295 279 262 275 273 270 282 292 1 19 9 359 346 10 6 353 347